Weather History for Fort Worth, TX

Change the Weather History Date:

Thursday, January 1, 1998

  Actual Average Record
Temperature  
Mean Temperature 47 °F -  
Max Temperature 57 °F 55 °F 82 °F (2006)
Min Temperature 37 °F 35 °F 24 °F (2001)
Degree Days  
Heating Degree Days 18    
Moisture  
Dew Point 45 °F    
Average Humidity 80    
Maximum Humidity 97    
Minimum Humidity 60    
Precipitation  
Precipitation 0.00 in - - ()
Sea Level Pressure  
Sea Level Pressure 30.26 in    
Wind  
Wind Speed 10 mph (South)    
Max Wind Speed 21 mph    
Max Gust Speed 26 mph    
Visibility 10 miles    
Events Rain    
Averages and records for this station are not official NWS values.
T = Trace of Precipitation, MM = Missing Value Source: NWS Daily Summary

Daily Weather History Graph

Daily Weather History Graph

Search for Another Location

Airport:

Trip Planner

Search our weather history database for the weather conditions in past years. The results will help you decide how hot, cold, wet, or windy it might be!

Date:

Astronomy

Jan. 01, 1998 Rise Set
Actual Time 7:32 AM CST 5:34 PM CST
Civil Twilight 7:04 AM CST 6:01 PM CST
Nautical Twilight 6:34 AM CST 6:32 PM CST
Astronomical Twilight 6:04 AM CST 7:02 PM CST
Moon 9:44 AM CST (1/1) 9:02 PM CST (1/1)
Length of Visible Light 10h 56m
Length of Day
10h 02m
Waxing Crescent, 11% of the Moon is Illuminated
Jan 1
Waxing Crescent
Jan 5
First Quarter
Jan 12
Full
Jan 20
Last Quarter
Jan 28
New

Hourly Weather History & Observations

Time (CST) Temp. Windchill Dew Point Humidity Pressure Visibility Wind Dir Wind Speed Gust Speed Precip Events Conditions
12:53 AM 39.0 °F 34.8 °F 28.0 °F 65% 30.39 in 10.0 mi SSE 5.8 mph - N/A   Clear
1:53 AM 39.0 °F 34.0 °F 28.0 °F 65% 30.38 in 10.0 mi SE 6.9 mph - N/A   Clear
2:53 AM 39.9 °F 36.7 °F 27.0 °F 60% 30.38 in 10.0 mi SSE 4.6 mph - N/A   Clear
3:53 AM 37.9 °F 32.1 °F 28.0 °F 68% 30.35 in 10.0 mi South 8.1 mph - N/A   Partly Cloudy
4:53 AM 41.0 °F 35.2 °F 28.0 °F 60% 30.35 in 10.0 mi South 9.2 mph - N/A   Clear
5:53 AM 41.0 °F 34.7 °F 28.9 °F 62% 30.35 in 10.0 mi South 10.4 mph - N/A   Clear
6:53 AM 43.0 °F 36.0 °F 30.9 °F 62% 30.33 in 10.0 mi SSE 13.8 mph - N/A   Scattered Clouds
7:53 AM 44.1 °F 38.1 °F 32.0 °F 63% 30.34 in 10.0 mi SSW 11.5 mph - N/A   Partly Cloudy
8:53 AM 46.9 °F - 37.0 °F 68% 30.34 in 10.0 mi South 17.3 mph 23.0 mph N/A   Overcast
9:53 AM 48.9 °F - 39.0 °F 69% 30.35 in 10.0 mi South 11.5 mph - N/A   Overcast
10:53 AM 51.1 °F - 44.1 °F 77% 30.34 in 10.0 mi South 12.7 mph - N/A   Overcast
11:53 AM 54.0 °F - 46.9 °F 77% 30.32 in 10.0 mi South 20.7 mph 26.5 mph N/A   Overcast
12:53 PM 57.0 °F - 50.0 °F 77% 30.26 in 10.0 mi South 13.8 mph - N/A   Overcast
1:53 PM 55.0 °F - 51.1 °F 86% 30.24 in 10.0 mi SSW 12.7 mph - 0.00 in   Overcast
2:53 PM 55.9 °F - 52.0 °F 87% 30.23 in 10.0 mi South 9.2 mph - N/A   Overcast
3:34 PM 55.4 °F - 51.8 °F 88% 30.23 in 10.0 mi South 12.7 mph - N/A   Overcast
3:53 PM 54.0 °F - 53.1 °F 97% 30.22 in 10.0 mi South 9.2 mph - 0.00 in Rain Light Rain
4:53 PM 55.0 °F - 52.0 °F 89% 30.21 in 10.0 mi SSE 11.5 mph - 0.00 in   Overcast
5:53 PM 55.0 °F - 52.0 °F 89% 30.20 in 10.0 mi South 9.2 mph - N/A   Overcast
6:53 PM 55.0 °F - 53.1 °F 93% 30.20 in 10.0 mi South 6.9 mph - N/A   Overcast
7:12 PM 55.4 °F - 53.6 °F 94% 30.20 in 10.0 mi South 5.8 mph - N/A   Overcast
7:46 PM 55.4 °F - 53.6 °F 94% 30.19 in 10.0 mi South 9.2 mph - N/A   Overcast
7:53 PM 55.9 °F - 54.0 °F 93% 30.19 in 10.0 mi South 8.1 mph - N/A   Overcast
8:53 PM 57.0 °F - 55.0 °F 93% 30.18 in 10.0 mi South 10.4 mph - N/A   Overcast
9:07 PM 57.2 °F - 55.4 °F 94% 30.18 in 10.0 mi South 11.5 mph - N/A   Overcast
9:28 PM 57.2 °F - 55.4 °F 94% 30.18 in 10.0 mi South 11.5 mph - N/A   Overcast
9:53 PM 57.0 °F - 52.0 °F 83% 30.17 in 10.0 mi South 17.3 mph - N/A   Overcast
10:53 PM 57.0 °F - 53.1 °F 87% 30.16 in 10.0 mi South 17.3 mph - N/A   Overcast
11:53 PM 57.9 °F - 54.0 °F 87% 30.15 in 10.0 mi South 16.1 mph 23.0 mph N/A   Overcast